Location: Newark
(52.5694°N, 1.3190°W)
Time: 10:49:35
(UTC+00:00)

N. Korean satellite - Pass Details

Date: 30 January 2020
Orbit: 456 x 505 km, 97.2° (Epoch: 19 February)

Event Time Altitude Azimuth Distance (km) Brightness Sun altitude
Rises 05:06:51 0° 25° (NNE) 2,554 10.6 -24.9°
Reaches altitude 10° 05:09:19 10° 42° (NE) 1,678 9.8 -24.5°
Maximum altitude 05:12:05 21° 93° (E) 1,163 9.3 -24.1°
Drops below altitude 10° 05:14:53 10° 143° (SE) 1,688 9.7 -23.7°
Sets 05:17:21 0° 160° (SSE) 2,573 10.5 -23.3°
